DW4407 Weather Reports


Display with metric or nautical units.
time (UTC)temp
F
wind
direction
speed
MPH
gust
MPH
rain 1hr
in
rain 24hr
in
rain mn
in
humidity
%
barometer
mb
20260503224520 57 250 0.0 3.0 0.00 0.07 0.07 90 1013.9
20260503223020 57 263 0.0 5.0 0.01 0.07 0.07 90 1013.9
20260503221521 57 321 0.0 6.0 0.01 0.07 0.07 90 1013.9
20260503220018 57 302 0.0 2.0 0.01 0.08 0.07 90 1013.7
20260503214534 56 132 0.0 7.0 0.01 0.08 0.07 90 1013.7
20260503213016 56 254 0.0 6.0 0.00 0.07 0.06 90 1013.9
20260503211516 56 252 0.0 5.0 0.00 0.07 0.06 90 1013.6
20260503210014 56 128 0.0 2.0 0.00 0.07 0.06 90 1013.5
20260503204513 56 238 0.0 3.0 0.00 0.07 0.06 90 1013.4
20260503203014 56 317 0.0 1.0 0.00 0.07 0.06 90 1013.4
20260503201512 55 261 0.0 0.0 0.01 0.07 0.06 90 1013.4
20260503200013 55 261 0.0 0.0 0.01 0.07 0.06 91 1013.4
20260503194510 55 261 0.0 0.0 0.01 0.07 0.06 91 1013.1
20260503193016 55 261 0.0 4.0 0.01 0.07 0.06 91 1013.2
20260503191522 55 338 0.0 4.0 0.00 0.06 0.05 90 1013.2
20260503190018 55 290 0.0 4.0 0.00 0.06 0.05 90 1013.3
20260503184505 56 280 0.0 3.0 0.00 0.06 0.05 90 1013.5
20260503183003 56 266 0.0 7.0 0.00 0.06 0.05 90 1013.7
20260503181503 56 281 0.0 5.0 0.01 0.06 0.05 90 1013.6
20260503180005 56 267 0.0 7.0 0.01 0.06 0.05 90 1013.7
20260503174602 56 261 1.0 5.0 0.01 0.06 0.05 90 1014.0
20260503173104 56 94 0.0 3.0 0.01 0.06 0.05 90 1014.2
20260503171556 56 355 1.0 4.0 0.00 0.05 0.04 90 1014.3
20260503170106 56 251 0.0 4.0 0.00 0.05 0.04 90 1014.6
20260503081522 60 256 0.0 0.0 0.00 0.01 0.01 82 1016.5
20260503071514 63 256 0.0 0.0 0.00 0.01 0.01 76 1016.0
20260503054506 67 259 0.0 0.0 0.00 0.01 0.01 68 1016.5
20260503053005 67 259 0.0 5.0 0.00 0.01 0.01 67 1016.5
20260503051504 67 310 0.0 3.0 0.00 0.01 0.01 67 1016.7
20260503050004 69 172 0.0 4.0 0.00 0.01 0.01 62 1016.8
20260503044505 71 252 0.0 4.0 0.00 0.01 0.01 61 1016.8
20260503043001 70 269 1.0 5.0 0.00 0.01 0.01 62 1016.9
20260503041503 67 292 0.0 3.0 0.00 0.01 0.01 66 1016.8
20260503040059 67 236 0.0 3.0 0.00 0.01 0.01 65 1016.9
20260503034558 69 360 1.0 6.0 0.00 0.01 0.01 61 1017.0
20260503033103 70 342 0.0 9.0 0.00 0.01 0.01 60 1017.1
20260503031553 69 355 1.0 6.0 0.00 0.01 0.01 64 1017.4
20260503030049 69 272 2.0 9.0 0.00 0.01 0.01 64 1017.8
20260503024546 66 348 1.0 6.0 0.00 0.01 0.01 67 1018.1
20260503023046 65 51 1.0 5.0 0.00 0.01 0.01 71 1018.4
20260503021541 64 259 0.0 0.0 0.00 0.01 0.01 73 1018.6
20260503020037 64 259 0.0 2.0 0.00 0.01 0.01 73 1018.9
20260503014533 64 259 0.0 4.0 0.00 0.01 0.01 74 1019.2
20260503013039 63 321 0.0 5.0 0.00 0.01 0.01 74 1019.5
20260503011529 63 320 0.0 1.0 0.00 0.01 0.01 76 1019.8
20260503010024 61 267 0.0 0.0 0.00 0.01 0.01 81 1019.9
20260503004521 59 267 0.0 0.0 0.00 0.01 0.01 85 1020.1
20260503003015 57 267 0.0 0.0 0.00 0.01 0.01 89 1020.4
20260503001514 56 267 0.0 0.0 0.00 0.01 0.01 91 1020.5
20260503000011 55 267 0.0 0.0 0.00 0.01 0.01 90 1020.8
20260502234510 54 267 0.0 0.0 0.00 0.01 0.01 89 1021.0
20260502233019 53 267 0.0 0.0 0.00 0.01 0.01 90 1021.0
20260502231508 52 267 0.0 0.0 0.00 0.01 0.01 90 1021.1
20260502230006 51 267 0.0 0.0 0.00 0.01 0.01 90 1021.2